Madisonville, KY

12:43 AM CST on December 12, 2019 (GMT -0600)
Madisonville

Weather History for K2I0 - October, 2019

Change the Weather History Date:

Monday, October 28, 2019

  Actual Average (KOWB) Record (KOWB)
Temperature  
Mean Temperature 52 °F -  
Max Temperature 60 °F 66 °F 83 °F (1940)
Min Temperature 45 °F 41 °F 21 °F (1942)
Degree Days  
Heating Degree Days 12    
Growing Degree Days 2 (Base 50)    
Moisture  
Dew Point 50 °F    
Average Humidity 85    
Maximum Humidity 100    
Minimum Humidity 65    
Precipitation  
Precipitation 0.00 in - - ()
Sea Level Pressure  
Sea Level Pressure 30.08 in    
Wind  
Wind Speed 2 mph ()    
Max Wind Speed 6 mph    
Max Gust Speed -    
Visibility 6.7 miles    
Events Fog    
Averages and records for this station are not official NWS values.
T = Trace of Precipitation, MM = Missing Value Source: Averaged Metar Reports

Daily Weather History Graph

Daily Weather History Graph

Search for Another Location

Airport or City:

Astronomy

Oct. 28, 2019 Rise Set
Actual Time 7:09 AM CDT 5:56 PM CDT
Civil Twilight 6:43 AM CDT 6:23 PM CDT
Nautical Twilight 6:12 AM CDT 6:53 PM CDT
Astronomical Twilight 5:42 AM CDT 7:23 PM CDT
Moon 7:31 AM CDT (10/28) 6:41 PM CDT (10/28)
Length of Visible Light 11h 39m
Length of Day
10h 46m
New Moon, 0% of the Moon is Illuminated
Oct 28
New Moon
Nov 4
First Quarter
Nov 12
Full
Nov 19
Last Quarter
Nov 26
New

Hourly Weather History & Observations

Time (CDT) Temp. Dew Point Humidity Pressure Visibility Wind Dir Wind Speed Gust Speed Precip Events Conditions
12:15 AM 51.8 °F 48.2 °F 88% 30.08 in 10.0 mi SSW 3.5 mph - N/A   Clear
12:35 AM 51.8 °F 48.2 °F 88% 30.08 in 10.0 mi Calm Calm - N/A   Clear
12:55 AM 50.5 °F 47.1 °F 88% 30.07 in 7.0 mi Calm Calm - N/A   Clear
1:35 AM 48.2 °F 48.2 °F 100% 30.07 in 0.2 mi Calm Calm - N/A Fog Fog
1:55 AM 48.0 °F 48.0 °F 100% 30.07 in 0.2 mi Calm Calm - N/A Fog Fog
2:15 AM 47.1 °F 47.1 °F 100% 30.07 in 0.5 mi Calm Calm - N/A Fog Fog
2:35 AM 46.9 °F 46.9 °F 100% 30.07 in 0.5 mi Calm Calm - N/A Fog Fog
2:55 AM 45.3 °F 45.3 °F 100% 30.07 in 0.2 mi Calm Calm - N/A Fog Fog
3:15 AM 46.4 °F 46.4 °F 100% 30.07 in 0.2 mi Calm Calm - N/A Fog Fog
3:35 AM 45.9 °F 45.9 °F 100% 30.07 in 0.2 mi Calm Calm - N/A Fog Fog
3:55 AM 46.0 °F 46.0 °F 100% 30.07 in 0.5 mi Calm Calm - N/A Fog Fog
4:15 AM 46.4 °F 46.4 °F 100% 30.07 in 0.2 mi Calm Calm - N/A Fog Fog
4:35 AM 47.3 °F 47.3 °F 100% 30.07 in 0.2 mi Calm Calm - N/A Fog Fog
4:55 AM 48.2 °F 48.2 °F 100% 30.08 in 0.5 mi Calm Calm - N/A Fog Fog
5:15 AM 49.1 °F 49.1 °F 100% 30.09 in 0.2 mi Calm Calm - N/A Fog Fog
5:35 AM 49.1 °F 49.1 °F 100% 30.09 in 0.2 mi Calm Calm - N/A Fog Fog
5:55 AM 49.3 °F 49.3 °F 100% 30.10 in 0.2 mi Calm Calm - N/A Fog Fog
6:15 AM 49.6 °F 49.6 °F 100% 30.11 in 0.2 mi Calm Calm - N/A Fog Fog
6:35 AM 50.0 °F 50.0 °F 100% 30.11 in 0.2 mi Calm Calm - N/A Fog Fog
7:15 AM 50.7 °F 50.7 °F 100% 30.11 in 0.5 mi Calm Calm - N/A Fog Fog
7:35 AM 50.9 °F 50.9 °F 100% 30.12 in 0.5 mi Calm Calm - N/A Fog Fog
7:55 AM 51.3 °F 51.3 °F 100% 30.12 in 1.2 mi Calm Calm - N/A   Overcast
8:15 AM 51.6 °F 51.6 °F 100% 30.12 in 4.0 mi Calm Calm - N/A   Overcast
8:35 AM 51.8 °F 51.8 °F 100% 30.13 in 2.5 mi Calm Calm - N/A   Overcast
8:55 AM 52.3 °F 52.3 °F 100% 30.13 in 4.0 mi SSE 3.5 mph - N/A   Overcast
9:15 AM 52.5 °F 52.5 °F 100% 30.13 in 3.0 mi South 3.5 mph - N/A   Overcast
9:35 AM 52.9 °F 52.9 °F 100% 30.12 in 5.0 mi South 3.5 mph - N/A   Overcast
10:35 AM 55.4 °F 55.4 °F 100% 30.13 in 10.0 mi SSW 4.6 mph - N/A   Overcast
10:55 AM 55.0 °F 55.0 °F 100% 30.13 in 10.0 mi Calm Calm - N/A   Overcast
11:15 AM 55.4 °F 55.4 °F 100% 30.13 in 10.0 mi South 4.6 mph - N/A   Overcast
11:35 AM 55.9 °F 55.9 °F 100% 30.12 in 10.0 mi SW 4.6 mph - N/A   Overcast
11:55 AM 55.6 °F 55.6 °F 100% 30.12 in 10.0 mi WSW 4.6 mph - N/A   Overcast
12:15 PM 56.5 °F 56.5 °F 100% 30.11 in 10.0 mi SW 4.6 mph - N/A   Overcast
12:35 PM 56.8 °F 51.4 °F 82% 30.10 in 7.0 mi SW 5.8 mph - N/A   Overcast
12:55 PM 58.3 °F 50.5 °F 75% 30.09 in 10.0 mi WNW 4.6 mph - N/A   Overcast
1:15 PM 58.1 °F 50.0 °F 74% 30.08 in 10.0 mi WNW 4.6 mph - N/A   Overcast
1:35 PM 58.5 °F 50.4 °F 74% 30.07 in 10.0 mi West 4.6 mph - N/A   Overcast
1:55 PM 60.4 °F 50.9 °F 71% 30.07 in 10.0 mi SW 3.5 mph - N/A   Overcast
2:35 PM 60.1 °F 50.0 °F 69% 30.06 in 10.0 mi SW 5.8 mph - N/A   Overcast
2:55 PM 60.3 °F 49.5 °F 68% 30.07 in 10.0 mi SSW 4.6 mph - N/A   Overcast
3:15 PM 60.6 °F 49.3 °F 66% 30.06 in 10.0 mi South 3.5 mph - N/A   Overcast
3:35 PM 60.6 °F 49.1 °F 66% 30.06 in 10.0 mi South 5.8 mph - N/A   Overcast
3:55 PM 60.6 °F 48.9 °F 65% 30.06 in 10.0 mi SSE 5.8 mph - N/A   Overcast
4:15 PM 60.8 °F 49.1 °F 65% 30.06 in 10.0 mi Calm Calm - N/A   Overcast
4:35 PM 60.6 °F 49.3 °F 66% 30.07 in 10.0 mi South 3.5 mph - N/A   Overcast
4:55 PM 60.4 °F 48.9 °F 66% 30.06 in 10.0 mi South 4.6 mph - N/A   Overcast
5:15 PM 60.1 °F 48.9 °F 67% 30.06 in 10.0 mi Calm Calm - N/A   Overcast
5:35 PM 59.9 °F 48.7 °F 67% 30.06 in 10.0 mi Calm Calm - N/A   Overcast
5:55 PM 59.7 °F 49.1 °F 68% 30.06 in 10.0 mi Calm Calm - N/A   Overcast
6:15 PM 59.7 °F 48.9 °F 67% 30.06 in 10.0 mi Calm Calm - N/A   Overcast
6:35 PM 59.2 °F 49.5 °F 70% 30.07 in 10.0 mi West 3.5 mph - N/A   Overcast
6:55 PM 59.2 °F 49.3 °F 70% 30.08 in 10.0 mi Calm Calm - N/A   Overcast
7:15 PM 59.4 °F 49.3 °F 69% 30.07 in 10.0 mi South 3.5 mph - N/A   Overcast
7:35 PM 59.2 °F 49.3 °F 70% 30.08 in 10.0 mi Calm Calm - N/A   Overcast
7:55 PM 59.0 °F 48.9 °F 69% 30.08 in 10.0 mi SSW 3.5 mph - N/A   Overcast
8:35 PM 58.5 °F 49.6 °F 72% 30.06 in 10.0 mi South 3.5 mph - N/A   Overcast
8:55 PM 58.3 °F 50.0 °F 74% 30.07 in 10.0 mi SSW 3.5 mph - N/A   Overcast
9:15 PM 58.3 °F 49.5 °F 72% 30.07 in 10.0 mi South 4.6 mph - N/A   Overcast
9:35 PM 58.3 °F 49.1 °F 71% 30.08 in 10.0 mi South 3.5 mph - N/A   Overcast
9:55 PM 58.1 °F 49.1 °F 72% 30.08 in 10.0 mi SSW 3.5 mph - N/A   Overcast
10:15 PM 57.9 °F 49.3 °F 73% 30.09 in 10.0 mi SW 4.6 mph - N/A   Overcast
10:35 PM 57.6 °F 49.3 °F 74% 30.08 in 10.0 mi SW 4.6 mph - N/A   Overcast
10:55 PM 57.6 °F 49.1 °F 73% 30.08 in 10.0 mi SW 4.6 mph - N/A   Overcast
11:15 PM 57.4 °F 49.1 °F 74% 30.09 in 10.0 mi WSW 4.6 mph - N/A   Overcast
11:35 PM 56.8 °F 48.7 °F 74% 30.08 in 10.0 mi WSW 4.6 mph - N/A   Overcast
11:55 PM 56.3 °F 48.6 °F 75% 30.07 in 10.0 mi Calm Calm - N/A   Overcast